User: anonymous   Login
Location: Bonny Doon Airfield
(37.0704°N, 122.1252°W)
Time: 15:19:44
(UTC-07:00)
Language:

Vanguard 2 - Orbit

View from above orbital plane
View from above orbital plane
View from above satellite
View from above satellite

Ground track
Ground track

The orbit data is extracted from the following two-line orbital elements,

1 00011U 59001A   18203.31299898 -.00000026  00000-0 -32144-4 0  9998
2 00011  32.8766 148.7211 1468303 281.9758  62.0433 11.85535940534073
Epoch (UTC): 22 July 2018 07:30:43
Eccentricity: 0.1468303
inclination: 32.8766°
perigee height: 553 km
apogee height: 2939 km
right ascension of ascending node: 148.7211°
argument of perigee: 281.9758°
revolutions per day: 11.85535940
mean anomaly at epoch: 62.0433°
orbit number at epoch: 53407

The dashed part of the orbit path shows where the satellite is in the earth's shadow,  

DLR